Weather History for Morganton, NC

Change the Weather History Date:

Monday, January 21, 2013

  Actual Average (KHKY) Record (KHKY)
Temperature  
Mean Temperature 40 °F -  
Max Temperature 56 °F 47 °F 67 °F (1959)
Min Temperature 25 °F 26 °F -8 °F (1985)
Degree Days  
Heating Degree Days 24    
Moisture  
Dew Point 22 °F    
Average Humidity 56    
Maximum Humidity 97    
Minimum Humidity 25    
Precipitation  
Precipitation 0.00 in - - ()
Sea Level Pressure  
Sea Level Pressure 30.05 in    
Wind  
Wind Speed 4 mph (West)    
Max Wind Speed 22 mph    
Max Gust Speed 31 mph    
Visibility 10 miles    
Events      
Averages and records for this station are not official NWS values.
T = Trace of Precipitation, MM = Missing Value Source: NWS Daily Summary

Daily Weather History Graph

Daily Weather History Graph

Search for Another Location

Airport:

Trip Planner

Search our weather history database for the weather conditions in past years. The results will help you decide how hot, cold, wet, or windy it might be!

Date:

Astronomy

Jan. 21, 2013 Rise Set
Actual Time 7:33 AM EST 5:42 PM EST
Civil Twilight 7:06 AM EST 6:10 PM EST
Nautical Twilight 6:34 AM EST 6:41 PM EST
Astronomical Twilight 6:04 AM EST 7:11 PM EST
Moon 1:22 PM EST (1/21) 3:00 AM EST (1/21)
Length of Visible Light 11h 04m
Length of Day
10h 09m
Waxing Gibbous, 75% of the Moon is Illuminated
Jan 21
Waxing Gibbous
Jan 26
Full
Feb 3
Last Quarter
Feb 10
New
Feb 17
First Quarter

Hourly Weather History & Observations

Time (EST) Temp. Windchill Dew Point Humidity Pressure Visibility Wind Dir Wind Speed Gust Speed Precip Events Conditions
12:15 AM 37.2 °F 33.6 °F 28.4 °F 70% 30.10 in 10.0 mi North 4.6 mph - N/A   Clear
12:35 AM 38.3 °F - 28.4 °F 68% 30.10 in 10.0 mi Calm Calm - N/A   Clear
12:55 AM 33.6 °F - 27.3 °F 78% 30.10 in 10.0 mi Calm Calm - N/A   Clear
1:15 AM 31.6 °F - 28.2 °F 87% 30.10 in 10.0 mi Calm Calm - N/A   Clear
1:35 AM 30.2 °F - 27.3 °F 89% 30.10 in 10.0 mi Calm Calm - N/A   Clear
1:55 AM 30.6 °F 27.1 °F 28.0 °F 90% 30.10 in 10.0 mi North 3.5 mph - N/A   Clear
2:15 AM 34.7 °F - 28.2 °F 77% 30.10 in 10.0 mi Calm Calm - N/A   Clear
2:35 AM 30.6 °F - 27.0 °F 86% 30.10 in 10.0 mi Calm Calm - N/A   Clear
2:55 AM 29.3 °F - 27.1 °F 92% 30.10 in 10.0 mi Calm Calm - N/A   Clear
3:15 AM 28.4 °F - 26.8 °F 94% 30.10 in 10.0 mi Calm Calm - N/A   Clear
3:35 AM 28.9 °F - 27.3 °F 94% 30.10 in 10.0 mi Calm Calm - N/A   Clear
3:55 AM 30.6 °F - 28.2 °F 91% 30.09 in 10.0 mi Calm Calm - N/A   Clear
4:15 AM 29.3 °F - 27.3 °F 92% 30.08 in 10.0 mi Calm Calm - N/A   Clear
4:35 AM 28.6 °F - 26.2 °F 91% 30.08 in 10.0 mi Calm Calm - N/A   Clear
4:55 AM 28.0 °F - 26.8 °F 95% 30.08 in 10.0 mi Calm Calm - N/A   Clear
5:15 AM 28.2 °F - 27.1 °F 96% 30.08 in 10.0 mi Calm Calm - N/A   Clear
5:35 AM 27.1 °F - 26.2 °F 96% 30.08 in 10.0 mi Calm Calm - N/A   Clear
5:55 AM 27.3 °F 23.4 °F 26.4 °F 96% 30.08 in 10.0 mi NNW 3.5 mph - N/A   Clear
6:15 AM 27.9 °F - 26.4 °F 94% 30.08 in 10.0 mi Calm Calm - N/A   Clear
6:35 AM 28.0 °F - 27.3 °F 97% 30.08 in 10.0 mi Calm Calm - N/A   Clear
6:55 AM 26.2 °F - 25.2 °F 96% 30.08 in 7.0 mi Calm Calm - N/A   Clear
7:15 AM 25.7 °F - 24.6 °F 96% 30.07 in 7.0 mi Calm Calm - N/A   Clear
7:35 AM 27.3 °F 22.0 °F 26.4 °F 96% 30.08 in 7.0 mi NNW 4.6 mph - N/A   Clear
7:55 AM 27.5 °F - 26.6 °F 96% 30.08 in 7.0 mi Calm Calm - N/A   Clear
8:15 AM 29.3 °F 25.6 °F 28.4 °F 96% 30.08 in 7.0 mi NNW 3.5 mph - N/A   Clear
8:35 AM 31.1 °F - 29.3 °F 93% 30.09 in 7.0 mi Calm Calm - N/A   Clear
8:55 AM 32.2 °F - 30.0 °F 92% 30.09 in 10.0 mi Calm Calm - N/A   Clear
9:35 AM 36.5 °F - 30.4 °F 78% 30.10 in 10.0 mi Calm Calm - N/A   Clear
9:55 AM 38.8 °F - 30.2 °F 71% 30.10 in 10.0 mi Calm Calm - N/A   Clear
10:15 AM 41.7 °F - 31.1 °F 66% 30.10 in 10.0 mi Calm Calm - N/A   Clear
10:35 AM 44.8 °F - 31.6 °F 60% 30.10 in 10.0 mi Calm Calm - N/A   Clear
10:55 AM 47.5 °F - 30.9 °F 53% 30.09 in 10.0 mi Calm Calm - N/A   Clear
11:15 AM 50.2 °F - 29.3 °F 45% 30.09 in 10.0 mi WSW 5.8 mph - N/A   Clear
11:35 AM 52.7 °F - 23.4 °F 32% 30.08 in 10.0 mi WSW 6.9 mph - N/A   Clear
11:55 AM 53.1 °F - 22.8 °F 31% 30.06 in 10.0 mi WSW 6.9 mph - N/A   Clear
12:15 PM 54.5 °F - 23.4 °F 30% 30.04 in 10.0 mi WSW 8.1 mph 20.7 mph N/A   Clear
12:35 PM 54.7 °F - 23.4 °F 30% 30.02 in 10.0 mi West 17.3 mph 24.2 mph N/A   Clear
12:55 PM 55.4 °F - 24.3 °F 30% 30.01 in 10.0 mi West 11.5 mph 19.6 mph N/A   Clear
1:15 PM 55.8 °F - 24.4 °F 30% 29.99 in 10.0 mi WNW 13.8 mph 24.2 mph N/A   Clear
1:35 PM 56.3 °F - 24.4 °F 29% 29.99 in 10.0 mi West 13.8 mph 23.0 mph N/A   Clear
1:55 PM 55.6 °F - 24.1 °F 30% 29.98 in 10.0 mi West 17.3 mph 27.6 mph N/A   Clear
2:15 PM 56.3 °F - 24.1 °F 29% 29.98 in 10.0 mi West 17.3 mph 24.2 mph N/A   Clear
2:35 PM 55.9 °F - 23.4 °F 28% 29.98 in 10.0 mi West 17.3 mph 26.5 mph N/A   Clear
2:55 PM 55.8 °F - 22.5 °F 28% 29.98 in 10.0 mi West 13.8 mph 23.0 mph N/A   Clear
3:15 PM 55.4 °F - 21.9 °F 27% 29.97 in 10.0 mi West 16.1 mph 25.3 mph N/A   Clear
3:35 PM 54.9 °F - 21.6 °F 27% 29.96 in 10.0 mi West 16.1 mph 23.0 mph N/A   Clear
3:55 PM 53.8 °F - 19.2 °F 26% 29.97 in 10.0 mi West 21.9 mph 29.9 mph N/A   Clear
4:15 PM 53.4 °F - 18.1 °F 25% 29.98 in 10.0 mi West 13.8 mph 31.1 mph N/A   Clear
4:35 PM 52.3 °F - 18.9 °F 27% 29.98 in 10.0 mi WNW 13.8 mph 29.9 mph N/A   Clear
4:55 PM 51.3 °F - 17.6 °F 26% 29.98 in 10.0 mi West 11.5 mph 26.5 mph N/A   Clear
5:15 PM 49.6 °F - 18.0 °F 29% 29.99 in 10.0 mi West 9.2 mph 21.9 mph N/A   Clear
5:35 PM 47.8 °F - 16.3 °F 28% 30.00 in 10.0 mi WNW 9.2 mph 16.1 mph N/A   Clear
6:15 PM 45.5 °F 41.8 °F 16.0 °F 31% 30.02 in 10.0 mi WSW 6.9 mph - N/A   Clear
6:35 PM 44.2 °F - 16.2 °F 32% 30.02 in 10.0 mi Calm Calm - N/A   Clear
6:55 PM 43.0 °F 39.5 °F 16.2 °F 34% 30.02 in 10.0 mi WNW 5.8 mph - N/A   Clear
7:15 PM 42.8 °F - 14.9 °F 32% 30.03 in 10.0 mi Calm Calm - N/A   Clear
7:55 PM 42.4 °F 38.1 °F 12.6 °F 30% 30.02 in 10.0 mi West 6.9 mph - N/A   Clear
8:15 PM 41.4 °F 37.6 °F 12.2 °F 30% 30.02 in 10.0 mi WSW 5.8 mph - N/A   Clear
8:35 PM 41.0 °F 36.4 °F 12.4 °F 31% 30.01 in 10.0 mi West 6.9 mph - N/A   Clear
8:55 PM 41.2 °F 35.5 °F 12.0 °F 30% 30.01 in 10.0 mi West 9.2 mph 17.3 mph N/A   Clear
9:15 PM 41.0 °F 35.8 °F 11.7 °F 30% 30.02 in 10.0 mi West 8.1 mph - N/A   Clear
9:35 PM 40.5 °F 34.1 °F 10.9 °F 30% 30.02 in 10.0 mi WNW 10.4 mph 17.3 mph N/A   Clear
9:55 PM 40.3 °F 35.5 °F 11.1 °F 30% 30.02 in 10.0 mi West 6.9 mph - N/A   Clear
10:15 PM 40.3 °F 33.9 °F 10.4 °F 29% 30.02 in 10.0 mi West 10.4 mph 17.3 mph N/A   Clear
10:35 PM 39.6 °F 34.0 °F 10.4 °F 30% 30.03 in 10.0 mi West 8.1 mph 18.4 mph N/A   Clear
10:55 PM 38.7 °F 32.9 °F 10.2 °F 31% 30.03 in 10.0 mi West 8.1 mph - N/A   Clear
11:15 PM 38.1 °F 34.6 °F 10.2 °F 32% 30.03 in 10.0 mi WNW 4.6 mph - N/A   Clear
11:35 PM 37.0 °F 32.4 °F 10.4 °F 33% 30.04 in 10.0 mi WNW 5.8 mph - N/A   Clear
11:55 PM 36.5 °F 31.8 °F 8.8 °F 32% 30.04 in 10.0 mi WNW 5.8 mph - N/A   Clear